User: anonymous   Login
Location: Cluj-Napoca
(46.7712°N, 23.6236°E)
Time: 05:41:07
(UTC+02:00)
Language:

BEESAT 3 - Orbit

View from above orbital plane
View from above orbital plane
View from above satellite
View from above satellite

Ground track
Ground track

The orbit data is extracted from the following two-line orbital elements,

1 39134U 13015E   21332.79286792  .00005037  00000-0  21513-3 0  9991
2 39134  64.8645 357.6241 0024740 309.6549  50.2397 15.23786715476240
Epoch (UTC): 28 November 2021 19:01:43
Eccentricity: 0.0024740
inclination: 64.8645°
perigee height: 477 km
apogee height: 511 km
right ascension of ascending node: 357.6241°
argument of perigee: 309.6549°
revolutions per day: 15.23786715
mean anomaly at epoch: 50.2397°
orbit number at epoch: 47624

The dashed part of the orbit path shows where the satellite is in the earth's shadow,  

DLR